Home   Weather   Spiez   Past weeks

Flag for Switzerland Past Weather in Spiez, Bern, Switzerland — Yesterday and Last 2 Weeks

Now
49 °F

Cool.


Feels Like: 47 °F
Forecast: 38 / 46 °F
Wind: 6 mph from Southwest

Location: Interlaken

Current Time: Apr 25, 2017 at 5:07:24 am

Latest Report: Apr 25, 2017 at 4:00 am


Visibility: N/A

Pressure: 29.83 "Hg (27.72 "Hg at 607m altitude)

Humidity: 71%

Dew Point: 40 °F

Location of SpiezLocation

Past Weather in Spiez — Graph

°F

Spiez Temperature Yesterday

Maximum temperature yesterday: 67 °F (at 5:00 pm)
Minimum temperature yesterday: 38 °F (at 7:00 am)
Average temperature yesterday: 51 °F

High & Low Weather Summary for the Past Weeks

 TemperatureHumidityPressure
High73 °F (Apr 10, 3:00 pm)96% (Apr 19, 3:00 am)30.56 "Hg (Apr 19, 3:00 am)
Low29 °F (Apr 21, 5:00 am)21% (Apr 21, 3:00 pm)29.82 "Hg (Apr 24, 6:00 pm)
Average49 °F67%30.17 "Hg
* Reported Apr 10 3:00 am — Apr 25 3:00 am, Spiez, Weather by CustomWeather, © 2017

Note: Actual official high and low records may vary slightly from our data, if they occured in-between our weather recording intervals... More about our weather records

Advertising

Spiez Weather History for the Previous 24 Hours

Scroll right to see more
 ConditionsComfort  
Time TempWeatherWind HumidityBarometerVisibility
3:00 am
Tue, Apr 25
49 °FCool.5 mph70%29.83 "HgN/A
2:00 am48 °FCool.2 mph74%29.85 "HgN/A
1:00 am47 °FCool.No wind75%29.86 "HgN/A
12:00 am49 °FCool.2 mph72%29.87 "HgN/A
11:00 pm
Mon, Apr 24
51 °FCool.2 mph70%29.88 "HgN/A
10:00 pm53 °FCool.2 mph67%29.88 "HgN/A
9:00 pm55 °FCool.5 mph62%29.86 "HgN/A
8:00 pm58 °FRefreshingly cool.3 mph59%29.84 "HgN/A
7:00 pm63 °FMild.2 mph49%29.83 "HgN/A
6:00 pm67 °FMild.3 mph43%29.82 "HgN/A
5:00 pm67 °FMild.6 mph37%29.84 "HgN/A
4:00 pm66 °FMild.8 mph43%29.86 "HgN/A
3:00 pm64 °FMild.10 mph44%29.90 "HgN/A
2:00 pm60 °FRefreshingly cool.8 mph46%29.94 "HgN/A
1:00 pm56 °FRefreshingly cool.6 mph54%29.98 "HgN/A
12:00 pm53 °FCool.9 mph58%30.02 "HgN/A
10:00 am49 °FCool.2 mph69%30.06 "HgN/A
9:00 am44 °FQuite cool.2 mph80%30.11 "HgN/A
8:00 am38 °FChilly.2 mph88%30.14 "HgN/A
7:00 am38 °FChilly.1 mph88%30.14 "HgN/A
6:00 am39 °FChilly.2 mph86%30.12 "HgN/A
5:00 am39 °FChilly.2 mph85%30.13 "HgN/A
Weather by CustomWeather, © 2017

See weather overviewHow to use our weather pages